sat.trackr.live / text

‹ back to catalog

STARLINK-4692

NORAD 53603 · 2022-104R

PAYLOAD ACTIVE UNKNOWN

§ Identity

Operator
Country
US
Launch date
2022-08-28
Launch site
AFETR
Launch vehicle
Mass (kg)
RCS (m²)

Purposes: comms

External: N2YO · Heavens-Above · Gunter

§ Orbital elements

Epoch: 2026-09-20T04:00:03.000096Z

Period
95.25 min
Inclination
53.1596°
Eccentricity
0.0003043
Mean motion
15.11757699 rev/d
Perigee alt
528.7 km
Apogee alt
532.9 km
Semi-major
6,909.0 km
B*
1.1935e-4
RAAN
85.5684°
Arg perigee
141.9394°
Mean anomaly
173.8521°
Rev number
573

§ Raw data

STARLINK-46921 53603U 22104R   26263.16670139  .00001762  00000+0  11935-3 0  99952 53603  53.1596  85.5684 0003043 141.9394 173.8521 15.11757699  5738

JSON: /api/v1/satellites/53603 · /tle

For live sub-satellite position, see the globe view (requires WebGL).

§ Visibility from observer

Set your observer location to see the next 7 days of passes ≥ 10°. The values pass through the URL so the page stays shareable.

No JS? Fill the form by hand. The geolocation button needs JavaScript.